SL-14 R/B

Satellite information

Favourite Embed

Satellite Type and Status

ROCKET BODYIN ORBIT

Key statistics

Satellite SL-14 R/B at a glance.

Uptime

15295

Days in orbit

Revolutions

≈ 14.9

Per day

Orbit

LEO

Low Earth Orbit

Inclination

82.5

Latest

Satellite identification and parameters

Extended collection of information and parameters for SL-14 R/B.

Object identification

Identified? True

Debris? False

Object name: SL-14 R/B

International designator: 1983-061B

Object number (NORAD): 14148

Object ID (CCSDS): 14148

Country: COMMONWEALTH OF INDEPENDENT STATES (CIS)

Current information (Y/N): Y

RCS size: LARGE

Orbital parameters

Period: 96.95 minutes

Inclination: 82.5167 deg

SMA: 6990.77 km

Apoapsis: 627.071 km

Periapsis: 598.199 km

RAAN: 88.7996 deg

Eccentricy: 0.002065

Argument of periapsis: 184.3133 deg

Mean anomaly: 175.7908 deg

Mean motion: 14.85303589 rev/day

Mean motion (dot): 0.00000614 rev/day2

B* drag term: 0.000068414 1/REarth

Two-line elements (TLE)

Creation date: May 8, 2025, 3:01 a.m.

Reference frame: TEME

Reference center: EARTH

Epoch: May 7, 2025, 8:52 p.m. UTC

TLE line 0: 0 SL-14 R/B

TLE line 1: 1 14148U 83061B 25127.86957992 .00000614 00000-0 68414-4 0 9996

TLE line 2: 2 14148 82.5167 88.7996 0020650 184.3133 175.7908 14.85303589240999

Live tracking on map

Real-time ground track for satellite SL-14 R/B.

In-orbit conjunctions

A list of the most updated potential collisions computed for object SL-14 R/B.

Target Orbit TCA Probability of collision Miss distance Type
OBJECT H SSO 2024-10-14 12:23:29 0.00476027 204.0 (m) UNKNOWN
SURCAL 150B LEO 2024-09-10 07:45:14 0.002771819 524.0 (m) PAYLOAD

Associated space launch

There is no information available about the launch of this satellite, yet. Check back as we update our databases every day.

Latest news about this satellite

There are no fresh news available about this satellite. Check back as we update our databases every day.


Newsletter sign-up

Weekly statistics, charts and insights to help you stay on top of the space industry.